Location: Lucerne Valley
(34.4439°N, 116.9669°E)
Time: 11:34:39
(UTC-08:00)

OTV 5 (USA 277) - Pass Details

Date: 14 October 2017
Orbit: 404 x 417 km, 43.0° (Epoch: 07 September)

Event Time Altitude Azimuth Distance (km) Brightness Sun altitude
Rises 04:12:35 0° 288° (WNW) 2,350 ? -20.0°
Reaches altitude 10° 04:15:07 10° 307° (NW) 1,488 ? -20.5°
Maximum altitude 04:17:36 19° 355° (N) 1,061 ? -21.0°
Enters shadow 04:17:44 19° 359° (N) 1,063 ? -21.1°
